GSAT0208 (GALILEO 11)

Last updated on Nov. 11, 2019, 4:17 a.m. UTC

1 41175U 15079B   19314.39997315  .00000081  00000-0  00000+0 0  9992
2 41175  54.9576 167.5370 0002705 342.7593  17.3407  1.70473264 24262
UTC
Height (km)
Latitude
Longitude
Inclination
Orbital Period
UTC large
Height (km)
Speed (km/s)
/
Latitude / Longitude
Inclination (degrees)
Orbital Period (minutes)
Azimuth
Elevation
Range (km)
Doppler Factor
iOS Compass Heading
iOS Angle

Next 30 passes for location: Hong Kong

Rise time Rise Azimuth (degrees) Set time Set Azimuth (degrees) Duration Max altitude (degrees)

No matching passes for this satellites